This demonstration page uses our WeatherBlox Daily Observations layout. Learn more.

Left ArrowRight Arrow

38.20091, -84.87328

Hourly Observations for August 31, 2022

Temp ( °F °C ) Dew Point ( °F °C ) Humidity (%) Winds ( mph kmh ) Pressure ( in mb ) Visibility ( mi km ) Precip ( " mm )
12:53 am 00:53 Clear 66 18.9 63 17.2 90 90 NW 5 7 30.00 1016 10 16 0.00 0.00
1:53 am 01:53 Clear 68 20 60 15.6 76 76 NW 6 9 30.01 1016 10 16 0.00 0.00
2:53 am 02:53 Clear 65 18.3 59 15 81 81 Calm 30.00 1016 10 16 0.00 0.00
3:53 am 03:53 Clear 61 16.1 59 15 93 93 SSW 3 6 30.00 1016 10 16 0.00 0.00
4:53 am 04:53 Clear 60 15.6 58 14.4 93 93 Calm 30.01 1016 10 16 0.00 0.00
5:53 am 05:53 Clear 60 15.6 58 14.4 93 93 Calm 30.01 1016 10 16 0.00 0.00
6:53 am 06:53 Clear 57 13.9 56 13.3 96 96 Calm 30.03 1017 10 16 0.00 0.00
7:53 am 07:53 Sunny 59 15 57 13.9 93 93 Calm 30.04 1017 10 16 0.00 0.00
8:53 am 08:53 Sunny 66 18.9 61 16.1 84 84 Calm 30.06 1018 10 16 0.00 0.00
9:53 am 09:53 Sunny 70 21.1 61 16.1 73 73 Calm 30.06 1018 10 16 0.00 0.00
10:53 am 10:53 Sunny 75 23.9 62 16.7 64 64 Calm 30.06 1018 10 16 0.00 0.00
11:53 am 11:53 Sunny 77 25 60 15.6 56 56 Calm 30.06 1018 10 16 0.00 0.00
12:53 pm 12:53 Sunny 78 25.6 59 15 52 52 SSW 7 11 30.05 1018 10 16 0.00 0.00
1:53 pm 13:53 Sunny 80 26.7 60 15.6 51 51 W 6 9 30.04 1017 10 16 0.00 0.00
2:53 pm 14:53 Sunny 81 27.2 59 15 47 47 W 6 9 30.04 1017 10 16 0.00 0.00
3:53 pm 15:53 Sunny 82 27.8 59 15 46 46 WNW 6 9 30.02 1017 10 16 0.00 0.00
4:53 pm 16:53 Sunny 81 27.2 58 14.4 45 45 VRB 5 7 30.01 1016 10 16 0.00 0.00
5:53 pm 17:53 Sunny 82 27.8 60 15.6 47 47 NW 7 11 30.01 1016 10 16 0.00 0.00
6:53 pm 18:53 Sunny 80 26.7 59 15 49 49 NW 7 11 30.01 1016 10 16 0.00 0.00
7:53 pm 19:53 Sunny 75 23.9 61 16.1 62 62 NW 3 6 30.01 1016 10 16 0.00 0.00
8:53 pm 20:53 Clear 68 20 62 16.7 81 81 Calm 30.01 1016 10 16 0.00 0.00
9:53 pm 21:53 Clear 68 20 62 16.7 81 81 Calm 30.03 1017 10 16 0.00 0.00
10:53 pm 22:53 Clear 66 18.9 62 16.7 87 87 Calm 30.03 1017 10 16 0.00 0.00
11:53 pm 23:53 Clear 63 17.2 60 15.6 90 90 Calm 30.04 1017 10 16 0.00 0.00

Powered by AerisWeather